N11DL CYDB-CBK7

Flight info

Callsign N11DL
Flight time N/A
Altitude 11500
Route DCT
Aircraft AEST/L-SDFGRY/S

Departure

Time 2026-04-15 19:46
Airport Burwash Airport (CYDB)

Arrival

Time N/A
Airport Mile 422 (Alaska Highway) Airport (CBK7)
Time Latitude Longitude Altitude Speed Heading
2026-04-15 19:32 61.36934 -139.03116 2621 ft 0 kts 309°
2026-04-15 19:41 61.36935 -139.03119 2621 ft 1 kts 307°
2026-04-15 19:41 61.36919 -139.03181 2619 ft 9 kts 220°
2026-04-15 19:41 61.36864 -139.03276 2616 ft 13 kts 216°
2026-04-15 19:42 61.36790 -139.03229 2618 ft 12 kts 128°
2026-04-15 19:42 61.36738 -139.03086 2618 ft 13 kts 127°
2026-04-15 19:42 61.36687 -139.02937 2619 ft 13 kts 116°
2026-04-15 19:42 61.36644 -139.02850 2616 ft 4 kts 245°
2026-04-15 19:43 61.36647 -139.02879 2617 ft 0 kts 304°
2026-04-15 19:45 61.36647 -139.02880 2617 ft 0 kts 304°
2026-04-15 19:45 61.36740 -139.03124 2618 ft 57 kts 307°
2026-04-15 19:46 61.37084 -139.04035 2637 ft 94 kts 310°
2026-04-15 19:46 61.37541 -139.05174 2777 ft 109 kts 310°
2026-04-15 19:46 61.38043 -139.06510 2975 ft 121 kts 307°
2026-04-15 19:46 61.38526 -139.07916 3294 ft 118 kts 305°
2026-04-15 19:47 61.38965 -139.09328 3567 ft 117 kts 303°
2026-04-15 19:47 61.39412 -139.10808 3752 ft 122 kts 305°
2026-04-15 19:47 61.39903 -139.12278 3951 ft 126 kts 307°
2026-04-15 19:47 61.40417 -139.13761 4189 ft 126 kts 307°
2026-04-15 19:48 61.40930 -139.15240 4444 ft 126 kts 307°
2026-04-15 19:48 61.41446 -139.16721 4683 ft 126 kts 310°
2026-04-15 19:48 61.42195 -139.17599 4875 ft 128 kts 355°
2026-04-15 19:48 61.43036 -139.17059 5057 ft 132 kts 38°
2026-04-15 19:49 61.43474 -139.15371 5227 ft 139 kts 80°
2026-04-15 19:49 61.43377 -139.13341 5442 ft 142 kts 100°
2026-04-15 19:49 61.43097 -139.11338 5659 ft 145 kts 104°
2026-04-15 19:49 61.42784 -139.09307 5852 ft 148 kts 104°
2026-04-15 19:50 61.42478 -139.07242 6057 ft 149 kts 103°
2026-04-15 19:50 61.42186 -139.05182 6250 ft 151 kts 102°
2026-04-15 19:50 61.41892 -139.03061 6418 ft 153 kts 108°
2026-04-15 19:50 61.41394 -139.01065 6587 ft 156 kts 118°
2026-04-15 19:51 61.40781 -138.99177 6758 ft 158 kts 122°
2026-04-15 19:51 61.40145 -138.97295 6934 ft 159 kts 123°
2026-04-15 19:51 61.39505 -138.95406 7112 ft 159 kts 123°
2026-04-15 19:51 61.38863 -138.93521 7287 ft 159 kts 123°
2026-04-15 19:52 61.38221 -138.91638 7457 ft 159 kts 123°
2026-04-15 19:52 61.37577 -138.89755 7623 ft 159 kts 123°
2026-04-15 19:52 61.36931 -138.87874 7779 ft 159 kts 123°
2026-04-15 19:52 61.36286 -138.85997 7930 ft 160 kts 123°
2026-04-15 19:53 61.35642 -138.84130 8068 ft 162 kts 123°
2026-04-15 19:53 61.34980 -138.82214 8231 ft 164 kts 123°
2026-04-15 19:53 61.34327 -138.80265 8405 ft 164 kts 115°
2026-04-15 19:53 61.33966 -138.78022 8568 ft 162 kts 101°
2026-04-15 19:54 61.33683 -138.75752 8733 ft 162 kts 100°
2026-04-15 19:54 61.33412 -138.73480 8892 ft 162 kts 99°
2026-04-15 19:54 61.33142 -138.71209 9046 ft 162 kts 99°
2026-04-15 19:54 61.32869 -138.68941 9191 ft 162 kts 99°
2026-04-15 19:55 61.32595 -138.66670 9334 ft 162 kts 99°
2026-04-15 19:55 61.32319 -138.64393 9463 ft 162 kts 100°
2026-04-15 19:55 61.32040 -138.62119 9592 ft 162 kts 100°
2026-04-15 19:55 61.31760 -138.59844 9712 ft 162 kts 100°
2026-04-15 19:56 61.31478 -138.57562 9820 ft 163 kts 100°
2026-04-15 19:56 61.31194 -138.55282 9935 ft 162 kts 100°
2026-04-15 19:56 61.30916 -138.53036 10063 ft 163 kts 100°
2026-04-15 19:56 61.30633 -138.50754 10162 ft 163 kts 100°
2026-04-15 19:57 61.30349 -138.48467 10261 ft 163 kts 100°
2026-04-15 19:57 61.30067 -138.46179 10348 ft 163 kts 100°
2026-04-15 19:57 61.29800 -138.43917 11098 ft 163 kts 101°
2026-04-15 19:57 61.29545 -138.41616 11255 ft 163 kts 105°
2026-04-15 19:58 61.29255 -138.39331 11408 ft 163 kts 107°
2026-04-15 19:58 61.28953 -138.37053 11558 ft 164 kts 107°
2026-04-15 19:58 61.28651 -138.34754 11659 ft 166 kts 107°
2026-04-15 19:58 61.28347 -138.32419 11753 ft 169 kts 106°
2026-04-15 19:59 61.28037 -138.30011 11761 ft 176 kts 106°
2026-04-15 19:59 61.27714 -138.27498 11745 ft 184 kts 106°
2026-04-15 19:59 61.27381 -138.24891 11739 ft 189 kts 106°
2026-04-15 19:59 61.27044 -138.22252 11717 ft 194 kts 106°
2026-04-15 20:00 61.26694 -138.19508 11659 ft 199 kts 106°
2026-04-15 20:00 61.26329 -138.16649 11585 ft 204 kts 106°
2026-04-15 20:00 61.25967 -138.13813 11524 ft 207 kts 106°
2026-04-15 20:00 61.25595 -138.10910 11494 ft 208 kts 106°
2026-04-15 20:01 61.25227 -138.08017 11511 ft 206 kts 106°
2026-04-15 20:01 61.24859 -138.05145 11501 ft 205 kts 106°
2026-04-15 20:01 61.24492 -138.02298 11499 ft 204 kts 106°
2026-04-15 20:01 61.24124 -137.99472 11506 ft 202 kts 106°
2026-04-15 20:02 61.23756 -137.96648 11512 ft 203 kts 106°
2026-04-15 20:02 61.23385 -137.93802 11519 ft 205 kts 106°
2026-04-15 20:02 61.23010 -137.90928 11522 ft 207 kts 106°
2026-04-15 20:02 61.22759 -137.89010 11518 ft 208 kts 106°
2026-04-15 20:03 61.22253 -137.85131 11521 ft 208 kts 106°
2026-04-15 20:03 61.22003 -137.83210 11517 ft 208 kts 106°
2026-04-15 20:03 61.21626 -137.80317 11512 ft 208 kts 106°
2026-04-15 20:03 61.21127 -137.76499 11515 ft 206 kts 106°
2026-04-15 20:04 61.20754 -137.73631 11520 ft 206 kts 106°
2026-04-15 20:04 61.20379 -137.70758 11517 ft 207 kts 106°
2026-04-15 20:04 61.20001 -137.67882 11512 ft 207 kts 106°
2026-04-15 20:04 61.19745 -137.65935 11521 ft 208 kts 106°
2026-04-15 20:05 61.19369 -137.63073 11523 ft 209 kts 106°
2026-04-15 20:05 61.18986 -137.60163 11524 ft 210 kts 106°
2026-04-15 20:05 61.18599 -137.57236 11516 ft 211 kts 106°
2026-04-15 20:05 61.18210 -137.54296 11518 ft 211 kts 106°
2026-04-15 20:06 61.17820 -137.51358 11523 ft 212 kts 106°
2026-04-15 20:06 61.17426 -137.48389 11523 ft 214 kts 106°
2026-04-15 20:06 61.17031 -137.45421 11516 ft 214 kts 106°
2026-04-15 20:06 61.16633 -137.42439 11513 ft 215 kts 106°
2026-04-15 20:07 61.16237 -137.39455 11519 ft 214 kts 106°
2026-04-15 20:07 61.15848 -137.36481 11513 ft 215 kts 106°
2026-04-15 20:07 61.15456 -137.33497 11518 ft 214 kts 106°
2026-04-15 20:07 61.15063 -137.30523 11520 ft 214 kts 106°
2026-04-15 20:08 61.14667 -137.27554 11517 ft 214 kts 106°
2026-04-15 20:08 61.14271 -137.24592 11521 ft 214 kts 106°
2026-04-15 20:08 61.13872 -137.21630 11520 ft 214 kts 106°
2026-04-15 20:08 61.13474 -137.18703 11519 ft 214 kts 107°
2026-04-15 20:09 61.13071 -137.15737 11518 ft 214 kts 106°
2026-04-15 20:09 61.12668 -137.12776 11516 ft 214 kts 106°
2026-04-15 20:09 61.12264 -137.09817 11523 ft 214 kts 106°
2026-04-15 20:09 61.11860 -137.06854 11511 ft 214 kts 106°
2026-04-15 20:10 61.11456 -137.03891 11524 ft 214 kts 106°
2026-04-15 20:10 61.11053 -137.00937 11522 ft 213 kts 106°
2026-04-15 20:10 61.10649 -136.97986 11523 ft 214 kts 107°
2026-04-15 20:10 61.10242 -136.95023 11530 ft 214 kts 107°
2026-04-15 20:11 61.09834 -136.92058 11528 ft 215 kts 107°
2026-04-15 20:11 61.09423 -136.89078 11521 ft 215 kts 107°
2026-04-15 20:11 61.09011 -136.86106 11521 ft 215 kts 107°
2026-04-15 20:11 61.08600 -136.83133 11527 ft 215 kts 107°
2026-04-15 20:12 61.08187 -136.80158 11517 ft 215 kts 107°
2026-04-15 20:12 61.07776 -136.77192 11520 ft 215 kts 107°
2026-04-15 20:12 61.07364 -136.74231 11526 ft 214 kts 107°
2026-04-15 20:12 61.06952 -136.71278 11520 ft 214 kts 107°
2026-04-15 20:13 61.06539 -136.68323 11522 ft 214 kts 107°
2026-04-15 20:13 61.06126 -136.65370 11520 ft 214 kts 107°
2026-04-15 20:13 61.05712 -136.62419 11525 ft 214 kts 107°
2026-04-15 20:13 61.05302 -136.59496 11518 ft 215 kts 107°
2026-04-15 20:14 61.04885 -136.56488 11515 ft 215 kts 107°
2026-04-15 20:14 61.04475 -136.53563 11523 ft 215 kts 107°
2026-04-15 20:14 61.04055 -136.50600 11521 ft 215 kts 108°
2026-04-15 20:14 61.03633 -136.47634 11522 ft 216 kts 108°
2026-04-15 20:15 61.03210 -136.44659 11519 ft 216 kts 108°
2026-04-15 20:15 61.02788 -136.41689 11521 ft 216 kts 108°
2026-04-15 20:15 61.02366 -136.38723 11522 ft 215 kts 108°
2026-04-15 20:15 61.01948 -136.35788 11521 ft 216 kts 108°
2026-04-15 20:16 61.01518 -136.32789 11497 ft 216 kts 108°
2026-04-15 20:16 61.01092 -136.29821 11519 ft 216 kts 108°
2026-04-15 20:16 61.00668 -136.26849 11520 ft 216 kts 108°
2026-04-15 20:16 61.00244 -136.23890 11519 ft 216 kts 108°
2026-04-15 20:17 60.99816 -136.20923 11522 ft 216 kts 108°
2026-04-15 20:17 60.99388 -136.17959 11517 ft 216 kts 108°
2026-04-15 20:17 60.98961 -136.14998 11512 ft 215 kts 108°
2026-04-15 20:17 60.98535 -136.12034 11521 ft 216 kts 108°
2026-04-15 20:18 60.98106 -136.09064 11501 ft 216 kts 108°
2026-04-15 20:18 60.97678 -136.06111 11508 ft 215 kts 108°
2026-04-15 20:18 60.97250 -136.03160 11513 ft 215 kts 108°
2026-04-15 20:18 60.96821 -136.00209 11515 ft 215 kts 108°
2026-04-15 20:19 60.96396 -135.97299 11512 ft 215 kts 108°
2026-04-15 20:19 60.95966 -135.94352 11509 ft 215 kts 108°
2026-04-15 20:19 60.95534 -135.91401 11514 ft 215 kts 108°
2026-04-15 20:19 60.95102 -135.88460 11515 ft 216 kts 108°
2026-04-15 20:20 60.94668 -135.85499 11505 ft 216 kts 108°
2026-04-15 20:20 60.94233 -135.82542 11513 ft 216 kts 108°
2026-04-15 20:20 60.93797 -135.79584 11512 ft 216 kts 109°
2026-04-15 20:20 60.93358 -135.76627 11504 ft 216 kts 109°
2026-04-15 20:21 60.92920 -135.73676 11507 ft 215 kts 109°
2026-04-15 20:21 60.92484 -135.70731 11507 ft 216 kts 109°
2026-04-15 20:21 60.92047 -135.67782 11512 ft 216 kts 109°
2026-04-15 20:21 60.91607 -135.64824 11512 ft 217 kts 109°
2026-04-15 20:22 60.91165 -135.61859 11501 ft 218 kts 109°
2026-04-15 20:22 60.90719 -135.58877 11493 ft 218 kts 109°
2026-04-15 20:22 60.90273 -135.55899 11483 ft 218 kts 109°
2026-04-15 20:22 60.89827 -135.52931 11477 ft 218 kts 109°
2026-04-15 20:23 60.89405 -135.50115 11473 ft 217 kts 109°
2026-04-15 20:23 60.88961 -135.47148 11465 ft 217 kts 109°
2026-04-15 20:23 60.88521 -135.44221 11459 ft 218 kts 109°
2026-04-15 20:23 60.88074 -135.41249 11450 ft 218 kts 109°
2026-04-15 20:24 60.87626 -135.38283 11447 ft 218 kts 109°
2026-04-15 20:24 60.86726 -135.32353 11432 ft 218 kts 109°
2026-04-15 20:24 60.86276 -135.29389 11426 ft 218 kts 109°
2026-04-15 20:25 60.85825 -135.26422 11422 ft 218 kts 109°
2026-04-15 20:25 60.85374 -135.23457 11412 ft 217 kts 109°
2026-04-15 20:25 60.84924 -135.20501 11407 ft 217 kts 109°
2026-04-15 20:25 60.84472 -135.17545 11404 ft 217 kts 109°
2026-04-15 20:26 60.84020 -135.14579 11392 ft 219 kts 109°
2026-04-15 20:26 60.83566 -135.11595 11397 ft 220 kts 110°
2026-04-15 20:26 60.83105 -135.08602 11392 ft 220 kts 110°
2026-04-15 20:26 60.82649 -135.05656 11389 ft 220 kts 110°
2026-04-15 20:27 60.82187 -135.02668 11390 ft 220 kts 110°
2026-04-15 20:27 60.81725 -134.99678 11499 ft 220 kts 110°
2026-04-15 20:27 60.81262 -134.96685 11502 ft 221 kts 110°
2026-04-15 20:27 60.80794 -134.93675 11496 ft 221 kts 110°
2026-04-15 20:28 60.80327 -134.90670 11497 ft 222 kts 110°
2026-04-15 20:28 60.79859 -134.87665 11502 ft 222 kts 110°
2026-04-15 20:28 60.79390 -134.84651 11497 ft 222 kts 110°
2026-04-15 20:28 60.78919 -134.81640 11500 ft 222 kts 110°
2026-04-15 20:29 60.78446 -134.78623 11497 ft 222 kts 110°
2026-04-15 20:29 60.77973 -134.75615 11491 ft 222 kts 110°
2026-04-15 20:29 60.77505 -134.72617 11502 ft 221 kts 110°
2026-04-15 20:29 60.77035 -134.69626 11504 ft 221 kts 110°
2026-04-15 20:30 60.76564 -134.66639 11499 ft 220 kts 110°
2026-04-15 20:30 60.76098 -134.63663 11505 ft 220 kts 110°
2026-04-15 20:30 60.75629 -134.60690 11503 ft 220 kts 110°
2026-04-15 20:30 60.75158 -134.57720 11505 ft 220 kts 110°
2026-04-15 20:31 60.74686 -134.54746 11507 ft 220 kts 110°
2026-04-15 20:31 60.74212 -134.51762 11500 ft 221 kts 110°
2026-04-15 20:31 60.73737 -134.48783 11501 ft 220 kts 110°
2026-04-15 20:31 60.73262 -134.45805 11505 ft 221 kts 110°
2026-04-15 20:32 60.72787 -134.42822 11500 ft 220 kts 110°
2026-04-15 20:32 60.72317 -134.39847 11510 ft 221 kts 111°
2026-04-15 20:32 60.71848 -134.36901 11510 ft 221 kts 111°
2026-04-15 20:32 60.71361 -134.33878 11506 ft 221 kts 111°
2026-04-15 20:33 60.70887 -134.30930 11506 ft 221 kts 111°
2026-04-15 20:33 60.70405 -134.27949 11510 ft 221 kts 111°
2026-04-15 20:33 60.69921 -134.24958 11508 ft 222 kts 111°
2026-04-15 20:33 60.69436 -134.21963 11505 ft 223 kts 111°
2026-04-15 20:34 60.68952 -134.18963 11509 ft 223 kts 111°
2026-04-15 20:34 60.68464 -134.15959 11494 ft 223 kts 111°
2026-04-15 20:34 60.67977 -134.12953 11509 ft 223 kts 111°
2026-04-15 20:34 60.67490 -134.09957 11510 ft 222 kts 111°
2026-04-15 20:35 60.67002 -134.06972 11507 ft 221 kts 111°
2026-04-15 20:35 60.66517 -134.04006 11509 ft 220 kts 111°
2026-04-15 20:35 60.66033 -134.01049 11504 ft 219 kts 111°
2026-04-15 20:35 60.65554 -133.98120 11515 ft 217 kts 111°
2026-04-15 20:36 60.65076 -133.95202 11505 ft 217 kts 111°
2026-04-15 20:36 60.64597 -133.92289 11501 ft 216 kts 111°
2026-04-15 20:36 60.64121 -133.89391 11507 ft 216 kts 111°
2026-04-15 20:36 60.63642 -133.86536 11497 ft 208 kts 112°
2026-04-15 20:37 60.63178 -133.83779 11506 ft 205 kts 111°
2026-04-15 20:37 60.62732 -133.81052 11505 ft 206 kts 111°
2026-04-15 20:37 60.62280 -133.78288 11505 ft 206 kts 111°
2026-04-15 20:37 60.61827 -133.75519 11513 ft 207 kts 111°